Stündliche Wetter Kysyl

Heute, 14 Mai, Freitag

Zeit Temperatur Niederschläge Wind Luftdruck Luftfeuchtigkeit
00:00 +9°C° 0 mm 2 m/S 697 mmHg 45%
01:00 +8°C° 0 mm 2 m/S 697 mmHg 47%
02:00 +8°C° 0 mm 2 m/S 698 mmHg 49%
03:00 +7°C° 0 mm 2 m/S 698 mmHg 51%
04:00 +9°C° 0 mm 1 m/S 698 mmHg 48%
05:00 +10°C° 0 mm 1 m/S 698 mmHg 46%
06:00 +10°C° 0 mm 0 m/S 698 mmHg 43%
07:00 +12°C° 0 mm 1 m/S 698 mmHg 40%
08:00 +13°C° 0 mm 1 m/S 698 mmHg 36%
09:00 +15°C° 0 mm 1 m/S 698 mmHg 32%
10:00 +16°C° 0 mm 1 m/S 698 mmHg 28%
11:00 +18°C° 0 mm 1 m/S 698 mmHg 24%
12:00 +19°C° 0 mm 1 m/S 698 mmHg 21%
13:00 +19°C° 0 mm 1 m/S 698 mmHg 19%
14:00 +20°C° 0 mm 1 m/S 697 mmHg 17%
15:00 +20°C° 0 mm 1 m/S 697 mmHg 16%
16:00 +19°C° 0 mm 2 m/S 697 mmHg 18%
17:00 +19°C° 0 mm 2 m/S 698 mmHg 20%
18:00 +19°C° 0 mm 3 m/S 698 mmHg 22%
19:00 +17°C° 0 mm 3 m/S 698 mmHg 32%
20:00 +14°C° 0 mm 3 m/S 699 mmHg 42%
21:00 +12°C° 0 mm 3 m/S 699 mmHg 52%
22:00 +12°C° 0 mm 3 m/S 700 mmHg 57%
23:00 +11°C° 0 mm 4 m/S 700 mmHg 61%

Morgen, 15 Mai, Samstag

Zeit Temperatur Niederschläge Wind Luftdruck Luftfeuchtigkeit
00:00 +11°C° 0 mm 4 m/S 701 mmHg 66%
01:00 +10°C° 0 mm 4 m/S 701 mmHg 69%
02:00 +8°C° 0 mm 4 m/S 702 mmHg 72%
03:00 +8°C° 0 mm 3 m/S 702 mmHg 76%
04:00 +9°C° 0 mm 3 m/S 703 mmHg 71%
05:00 +9°C° 0 mm 3 m/S 703 mmHg 66%
06:00 +9°C° 0 mm 3 m/S 704 mmHg 61%
07:00 +11°C° 0 mm 3 m/S 704 mmHg 53%
08:00 +12°C° 0 mm 3 m/S 704 mmHg 46%
09:00 +13°C° 0 mm 3 m/S 704 mmHg 38%
10:00 +14°C° 0 mm 3 m/S 704 mmHg 36%
11:00 +16°C° 0 mm 3 m/S 704 mmHg 34%
12:00 +17°C° 0 mm 3 m/S 704 mmHg 32%
13:00 +18°C° 0 mm 3 m/S 704 mmHg 31%
14:00 +19°C° 0 mm 3 m/S 703 mmHg 31%
15:00 +19°C° 0 mm 3 m/S 703 mmHg 31%
16:00 +19°C° 0 mm 3 m/S 703 mmHg 32%
17:00 +19°C° 0 mm 3 m/S 703 mmHg 33%
18:00 +19°C° 0 mm 3 m/S 703 mmHg 34%
19:00 +17°C° 0 mm 3 m/S 703 mmHg 38%
20:00 +16°C° 0 mm 2 m/S 703 mmHg 41%
21:00 +15°C° 0 mm 1 m/S 703 mmHg 45%
22:00 +14°C° 0 mm 1 m/S 703 mmHg 47%
23:00 +14°C° 0 mm 1 m/S 702 mmHg 48%

übermorgen, 16 Mai, Sonntag

Zeit Temperatur Niederschläge Wind Luftdruck Luftfeuchtigkeit
00:00 +13°C° 0 mm 1 m/S 702 mmHg 50%
01:00 +12°C° 0 mm 1 m/S 702 mmHg 52%
02:00 +12°C° 0 mm 1 m/S 702 mmHg 54%
03:00 +11°C° 0 mm 1 m/S 702 mmHg 56%
04:00 +12°C° 0 mm 1 m/S 702 mmHg 53%
05:00 +13°C° 0 mm 1 m/S 702 mmHg 51%
06:00 +13°C° 0 mm 0 m/S 702 mmHg 48%
07:00 +15°C° 0 mm 1 m/S 702 mmHg 44%
08:00 +18°C° 0 mm 1 m/S 702 mmHg 41%
09:00 +19°C° 0 mm 1 m/S 702 mmHg 37%
10:00 +20°C° 0 mm 1 m/S 701 mmHg 34%
11:00 +21°C° 0 mm 2 m/S 701 mmHg 30%
12:00 +23°C° 0 mm 2 m/S 700 mmHg 27%
13:00 +24°C° 0 mm 2 m/S 700 mmHg 26%
14:00 +24°C° 0 mm 3 m/S 699 mmHg 25%
15:00 +25°C° 0 mm 3 m/S 699 mmHg 23%
16:00 +25°C° 0 mm 3 m/S 698 mmHg 26%
17:00 +23°C° 0 mm 4 m/S 698 mmHg 28%
18:00 +23°C° 0 mm 4 m/S 698 mmHg 30%
19:00 +21°C° 0 mm 3 m/S 698 mmHg 36%
20:00 +20°C° 0 mm 3 m/S 698 mmHg 41%
21:00 +18°C° 0 mm 2 m/S 698 mmHg 47%
22:00 +17°C° 0 mm 2 m/S 697 mmHg 49%
23:00 +18°C° 0 mm 1 m/S 697 mmHg 51%

17 Mai, Montag

Zeit Temperatur Niederschläge Wind Luftdruck Luftfeuchtigkeit
00:00 +16°C° 0 mm 1 m/S 697 mmHg 54%
01:00 +16°C° 0 mm 1 m/S 697 mmHg 55%
02:00 +15°C° 0 mm 1 m/S 697 mmHg 56%
03:00 +15°C° 0 mm 1 m/S 697 mmHg 57%
04:00 +16°C° 0 mm 1 m/S 697 mmHg 55%
05:00 +16°C° 0 mm 1 m/S 697 mmHg 54%
06:00 +18°C° 0 mm 1 m/S 697 mmHg 52%
07:00 +18°C° 0 mm 2 m/S 697 mmHg 49%
08:00 +19°C° 0 mm 3 m/S 697 mmHg 46%
09:00 +20°C° 0 mm 3 m/S 697 mmHg 43%
10:00 +21°C° 0 mm 4 m/S 697 mmHg 41%
11:00 +21°C° 0 mm 5 m/S 696 mmHg 39%
12:00 +22°C° 0 mm 6 m/S 696 mmHg 37%
13:00 +22°C° 0.1 mm 6 m/S 696 mmHg 38%
14:00 +22°C° 0.1 mm 6 m/S 695 mmHg 40%
15:00 +21°C° 0.1 mm 6 m/S 695 mmHg 42%
16:00 +20°C° 0.2 mm 5 m/S 695 mmHg 47%
17:00 +19°C° 0.2 mm 5 m/S 695 mmHg 52%
18:00 +18°C° 0.2 mm 4 m/S 695 mmHg 57%
19:00 +17°C° 0.3 mm 4 m/S 695 mmHg 62%
20:00 +15°C° 0.3 mm 4 m/S 695 mmHg 67%
21:00 +15°C° 0.3 mm 4 m/S 696 mmHg 72%
22:00 +14°C° 0.7 mm 3 m/S 696 mmHg 75%
23:00 +15°C° 0.7 mm 2 m/S 695 mmHg 78%

18 Mai, Dienstag

Zeit Temperatur Niederschläge Wind Luftdruck Luftfeuchtigkeit
00:00 +14°C° 0.7 mm 1 m/S 695 mmHg 81%
01:00 +14°C° 0.1 mm 1 m/S 695 mmHg 80%
02:00 +14°C° 0.1 mm 1 m/S 695 mmHg 78%
03:00 +14°C° 0.1 mm 1 m/S 695 mmHg 77%
04:00 +15°C° 0.1 mm 1 m/S 695 mmHg 73%
05:00 +15°C° 0.1 mm 2 m/S 695 mmHg 70%
06:00 +15°C° 0.1 mm 2 m/S 695 mmHg 66%
07:00 +16°C° 0.1 mm 2 m/S 695 mmHg 60%
08:00 +17°C° 0.1 mm 3 m/S 695 mmHg 53%
09:00 +18°C° 0.1 mm 3 m/S 695 mmHg 47%
10:00 +19°C° 0 mm 3 m/S 695 mmHg 44%
11:00 +20°C° 0 mm 4 m/S 694 mmHg 41%
12:00 +21°C° 0 mm 4 m/S 694 mmHg 38%
13:00 +20°C° 0.2 mm 4 m/S 693 mmHg 45%
14:00 +19°C° 0.2 mm 5 m/S 693 mmHg 52%
15:00 +17°C° 0.2 mm 5 m/S 692 mmHg 58%
16:00 +18°C° 0 mm 4 m/S 692 mmHg 57%
17:00 +18°C° 0 mm 4 m/S 691 mmHg 56%
18:00 +18°C° 0 mm 3 m/S 691 mmHg 55%
19:00 +18°C° 0 mm 2 m/S 691 mmHg 58%
20:00 +17°C° 0 mm 2 m/S 690 mmHg 61%
21:00 +16°C° 0 mm 1 m/S 690 mmHg 64%
22:00 +16°C° 0.1 mm 1 m/S 690 mmHg 66%
23:00 +15°C° 0.1 mm 1 m/S 690 mmHg 68%

19 Mai, Mittwoch

Zeit Temperatur Niederschläge Wind Luftdruck Luftfeuchtigkeit
00:00 +15°C° 0.1 mm 2 m/S 690 mmHg 70%
01:00 +15°C° 0.2 mm 2 m/S 690 mmHg 71%
02:00 +13°C° 0.2 mm 3 m/S 690 mmHg 72%
03:00 +13°C° 0.2 mm 3 m/S 690 mmHg 73%
04:00 +13°C° 0.1 mm 3 m/S 690 mmHg 71%
05:00 +13°C° 0.1 mm 3 m/S 690 mmHg 69%
06:00 +13°C° 0.1 mm 3 m/S 690 mmHg 66%
07:00 +13°C° 0.1 mm 3 m/S 690 mmHg 64%
08:00 +13°C° 0.1 mm 3 m/S 690 mmHg 62%
09:00 +14°C° 0.1 mm 3 m/S 690 mmHg 60%
10:00 +16°C° 0 mm 3 m/S 690 mmHg 57%
11:00 +17°C° 0 mm 3 m/S 690 mmHg 55%
12:00 +18°C° 0 mm 3 m/S 689 mmHg 52%
13:00 +15°C° 0.1 mm 4 m/S 689 mmHg 57%
14:00 +14°C° 0.1 mm 5 m/S 689 mmHg 62%
15:00 +11°C° 0.1 mm 6 m/S 689 mmHg 67%
16:00 +10°C° 0.5 mm 5 m/S 689 mmHg 69%
17:00 +9°C° 0.5 mm 5 m/S 690 mmHg 71%
18:00 +8°C° 0.5 mm 4 m/S 691 mmHg 73%
19:00 +7°C° 0 mm 5 m/S 691 mmHg 71%
20:00 +6°C° 0 mm 5 m/S 692 mmHg 68%
21:00 +5°C° 0 mm 6 m/S 693 mmHg 66%
22:00 +5°C° 0 mm 5 m/S 693 mmHg 66%
23:00 +4°C° 0 mm 4 m/S 694 mmHg 66%
Mehr zeigen

Wir brauchen deine Erlaubnis

Meteoprog und unser Service Anbieter werden persönliche Daten aufbewahren, so wie Cookies, Geräte Bezeichnung oder ähnliche Technologien von deinem Gerät und Prozess, so wie Persönliche Daten Inhalte und Werbungen, genauso wie social Media und den Verkehr zu analysieren.

  • Aufbewahrung und/oder Zugang zu deiner Geräte Informationen.

    Cookies, Geräte Bezeichnung oder andere Informationen, können aufbewahrt oder Zugang zu deinem Gerät erhalten, für den Grund, der oben angegeben wird.

  • Personalisierte Werbung und Inhalte, Messungen, Einblick in das Publikum und Produkt Entwicklung.

    Werbungen und Inhalte können personalisiert werden, basierend auf ein Profil. Mehr Daten können besser personalisierte Werbungen und Inhalte hinzufügen. Werbung und Inhalte können gezeigt und gemessen werden. Einblicke über das Publikum, welche die Werbung gesehen haben und den Inhalt, können abgeleitet werden. So wie Daten können genutzt werden, um es zu verbessern oder die Benutzer Erfahrung zu verbessern das System und die Software.

Wenn du “Ich stimme zu” klickst, erlaubst du uns, die Cookies zu benutzen die Geräte Bezeichnung, den Web oder ähnliche Technologien zu benutzen. Deine Settings, können in deinem Gerät bei deinem Browser geändert werden.

Für den bestimmten Zweck, berechtigten Interessen beruhen darauf, mehr als auf den Inhalt. Du kannst mehr darüber in unseren Privaten und Cookie Politik lesen.